Time,TemperatureF,DewpointF,PressureIn,WindDirection,WindDirectionDegrees,WindSpeedMPH,WindSpeedGustMPH,Humidity,HourlyPrecipIn,Conditions,Clouds,dailyrainin,SoftwareType,DateUTC
2013-12-15 00:01:00,10.0,1.9,29.94,SE,135,5.4,5.4,69,0.00,,,0.00,meteobridge,2013-12-15 05:01:00,
2013-12-15 00:02:00,10.0,1.9,29.94,East,90,4.5,5.4,69,0.00,,,0.00,meteobridge,2013-12-15 05:02:00,
2013-12-15 00:03:00,10.2,2.1,29.95,NE,45,3.8,4.5,69,0.00,,,0.00,meteobridge,2013-12-15 05:03:00,
2013-12-15 00:06:00,10.4,3.4,29.95,North,0,3.8,3.8,73,0.00,,,0.00,meteobridge,2013-12-15 05:06:00,
2013-12-15 00:08:00,10.4,3.4,29.93,North,0,12.1,12.1,73,0.00,,,0.00,meteobridge,2013-12-15 05:08:00,
2013-12-15 00:14:00,10.8,4.1,29.94,NE,45,3.8,5.4,74,0.00,,,0.00,meteobridge,2013-12-15 05:14:00,
2013-12-15 00:15:00,10.8,4.1,29.93,North,0,5.4,5.4,74,0.00,,,0.00,meteobridge,2013-12-15 05:15:00,
2013-12-15 00:21:00,10.9,4.3,29.92,East,90,3.8,3.8,74,0.00,,,0.00,meteobridge,2013-12-15 05:21:00,
2013-12-15 00:27:00,10.9,4.3,29.91,North,0,3.8,4.5,74,0.00,,,0.00,meteobridge,2013-12-15 05:27:00,
2013-12-15 00:33:00,10.8,4.1,29.91,NE,45,3.8,6.9,74,0.00,,,0.00,meteobridge,2013-12-15 05:33:00,
2013-12-15 00:39:00,10.8,4.1,29.90,NE,45,3.8,7.6,74,0.00,,,0.00,meteobridge,2013-12-15 05:39:00,
2013-12-15 00:45:00,10.8,4.1,29.90,North,0,4.5,6.0,74,0.00,,,0.00,meteobridge,2013-12-15 05:45:00,
2013-12-15 00:50:00,10.9,4.3,29.89,North,0,6.0,6.9,74,0.00,,,0.00,meteobridge,2013-12-15 05:50:00,
2013-12-15 00:56:00,10.9,4.3,29.89,NE,45,5.4,5.4,74,0.00,,,0.00,meteobridge,2013-12-15 05:56:00,
2013-12-15 01:02:00,11.1,4.5,29.88,East,90,6.0,7.6,74,0.00,,,0.00,meteobridge,2013-12-15 06:02:00,
2013-12-15 01:08:00,11.1,4.5,29.87,NE,45,6.0,9.8,74,0.00,,,0.00,meteobridge,2013-12-15 06:08:00,
2013-12-15 01:14:00,11.3,4.6,29.85,NE,45,10.7,10.7,74,0.00,,,0.00,meteobridge,2013-12-15 06:14:00,
2013-12-15 01:20:00,11.5,5.2,29.85,NE,45,3.1,3.1,75,0.00,,,0.00,meteobridge,2013-12-15 06:20:00,
2013-12-15 01:26:00,11.3,5.0,29.85,North,0,3.8,5.4,75,0.00,,,0.00,meteobridge,2013-12-15 06:26:00,
2013-12-15 01:32:00,11.5,5.2,29.85,NE,45,6.0,6.0,75,0.00,,,0.00,meteobridge,2013-12-15 06:32:00,
2013-12-15 01:37:00,11.5,5.2,29.85,NE,45,4.5,7.6,75,0.00,,,0.00,meteobridge,2013-12-15 06:37:00,
2013-12-15 01:43:00,11.7,5.4,29.84,North,0,3.8,10.7,75,0.00,,,0.00,meteobridge,2013-12-15 06:43:00,
2013-12-15 01:49:00,11.8,5.5,29.83,North,0,5.4,7.6,75,0.00,,,0.00,meteobridge,2013-12-15 06:49:00,
2013-12-15 01:55:00,11.8,5.5,29.83,North,0,6.0,6.0,75,0.00,,,0.00,meteobridge,2013-12-15 06:55:00,
2013-12-15 02:01:00,12.0,5.5,29.83,North,0,8.3,8.3,75,0.00,,,0.00,meteobridge,2013-12-15 07:01:00,
2013-12-15 02:07:00,12.2,5.5,29.82,East,90,9.2,11.4,74,0.00,,,0.00,meteobridge,2013-12-15 07:07:00,
2013-12-15 02:13:00,12.2,5.5,29.81,North,0,5.4,8.3,74,0.00,,,0.00,meteobridge,2013-12-15 07:13:00,
2013-12-15 02:18:00,12.4,5.7,29.79,East,90,8.3,8.3,74,0.00,,,0.00,meteobridge,2013-12-15 07:18:00,
2013-12-15 02:24:00,12.7,6.1,29.79,North,0,9.2,9.2,74,0.00,,,0.00,meteobridge,2013-12-15 07:24:00,
2013-12-15 02:30:00,12.9,6.3,29.78,North,0,3.1,4.5,74,0.00,,,0.00,meteobridge,2013-12-15 07:30:00,
2013-12-15 02:36:00,13.1,6.4,29.77,East,90,7.6,7.6,74,0.00,,,0.00,meteobridge,2013-12-15 07:36:00,
2013-12-15 02:42:00,13.3,6.6,29.76,North,0,9.8,11.4,74,0.00,,,0.00,meteobridge,2013-12-15 07:42:00,
2013-12-15 02:48:00,13.5,6.8,29.76,North,0,7.6,9.8,74,0.00,,,0.00,meteobridge,2013-12-15 07:48:00,
2013-12-15 02:54:00,13.6,7.2,29.74,NW,315,3.8,10.7,75,0.00,,,0.00,meteobridge,2013-12-15 07:54:00,
2013-12-15 03:00:00,13.8,7.3,29.73,NE,45,8.3,9.8,75,0.00,,,0.00,meteobridge,2013-12-15 08:00:00,
2013-12-15 03:05:00,13.8,7.2,29.72,North,0,13.6,13.6,74,0.00,,,0.00,meteobridge,2013-12-15 08:05:00,
2013-12-15 03:11:00,14.2,7.3,29.72,North,0,6.0,6.0,74,0.00,,,0.00,meteobridge,2013-12-15 08:11:00,
2013-12-15 03:17:00,14.4,7.5,29.71,North,0,10.7,10.7,74,0.00,,,0.00,meteobridge,2013-12-15 08:17:00,
2013-12-15 03:23:00,14.5,7.7,29.70,North,0,13.0,13.0,74,0.00,,,0.00,meteobridge,2013-12-15 08:23:00,
2013-12-15 03:29:00,14.7,7.9,29.70,North,0,8.3,8.3,74,0.00,,,0.00,meteobridge,2013-12-15 08:29:00,
2013-12-15 03:35:00,14.9,8.1,29.70,NE,45,6.0,9.2,74,0.00,,,0.00,meteobridge,2013-12-15 08:35:00,
2013-12-15 03:41:00,14.9,8.1,29.67,North,0,6.0,13.0,74,0.00,,,0.00,meteobridge,2013-12-15 08:41:00,
2013-12-15 03:47:00,14.9,8.1,29.66,NE,45,6.0,13.0,74,0.00,,,0.00,meteobridge,2013-12-15 08:47:00,
2013-12-15 03:52:00,15.3,8.4,29.65,North,0,9.2,10.7,74,0.00,,,0.00,meteobridge,2013-12-15 08:52:00,
2013-12-15 03:58:00,15.3,8.4,29.64,NE,45,9.8,14.5,74,0.00,,,0.00,meteobridge,2013-12-15 08:58:00,
2013-12-15 04:04:00,15.1,8.2,29.62,North,0,12.1,12.1,74,0.00,,,0.00,meteobridge,2013-12-15 09:04:00,
2013-12-15 04:10:00,15.3,8.4,29.62,North,0,9.2,9.2,74,0.00,,,0.00,meteobridge,2013-12-15 09:10:00,
2013-12-15 04:16:00,15.3,8.4,29.60,North,0,10.7,11.4,74,0.00,,,0.00,meteobridge,2013-12-15 09:16:00,
2013-12-15 04:22:00,15.1,8.2,29.60,North,0,6.9,9.8,74,0.00,,,0.00,meteobridge,2013-12-15 09:22:00,
2013-12-15 04:28:00,15.1,8.2,29.59,North,0,9.2,10.7,74,0.00,,,0.00,meteobridge,2013-12-15 09:28:00,
2013-12-15 04:34:00,15.3,8.4,29.60,North,0,15.9,15.9,74,0.00,,,0.00,meteobridge,2013-12-15 09:34:00,
2013-12-15 04:39:00,15.4,8.6,29.60,North,0,9.8,9.8,74,0.00,,,0.00,meteobridge,2013-12-15 09:39:00,
2013-12-15 04:45:00,15.4,8.6,29.59,North,0,8.3,13.0,74,0.00,,,0.00,meteobridge,2013-12-15 09:45:00,
2013-12-15 04:51:00,15.6,8.8,29.59,North,0,6.0,9.8,74,0.00,,,0.00,meteobridge,2013-12-15 09:51:00,
2013-12-15 04:57:00,15.8,8.6,29.58,North,0,7.6,7.6,73,0.00,,,0.00,meteobridge,2013-12-15 09:57:00,
2013-12-15 05:03:00,16.0,9.1,29.57,North,0,8.3,12.1,74,0.00,,,0.00,meteobridge,2013-12-15 10:03:00,
2013-12-15 05:09:00,16.0,8.8,29.57,North,0,5.4,11.4,73,0.00,,,0.00,meteobridge,2013-12-15 10:09:00,
2013-12-15 05:15:00,16.0,8.8,29.56,North,0,6.9,6.9,73,0.00,,,0.00,meteobridge,2013-12-15 10:15:00,
2013-12-15 05:21:00,16.0,8.8,29.55,North,0,6.9,6.9,73,0.00,,,0.00,meteobridge,2013-12-15 10:21:00,
2013-12-15 05:26:00,16.3,9.5,29.54,North,0,7.6,8.3,74,0.00,,,0.00,meteobridge,2013-12-15 10:26:00,
2013-12-15 05:32:00,16.5,9.7,29.54,North,0,5.4,7.6,74,0.00,,,0.00,meteobridge,2013-12-15 10:32:00,
2013-12-15 05:38:00,16.7,9.9,29.55,NE,45,9.8,9.8,74,0.00,,,0.00,meteobridge,2013-12-15 10:38:00,
2013-12-15 05:44:00,16.7,9.9,29.54,North,0,9.8,9.8,74,0.00,,,0.00,meteobridge,2013-12-15 10:44:00,
2013-12-15 05:50:00,16.9,10.0,29.54,North,0,8.3,9.2,74,0.00,,,0.00,meteobridge,2013-12-15 10:50:00,
2013-12-15 05:56:00,16.9,10.0,29.54,North,0,9.8,11.4,74,0.00,,,0.00,meteobridge,2013-12-15 10:56:00,
2013-12-15 06:02:00,17.1,10.2,29.54,North,0,6.0,8.3,74,0.00,,,0.00,meteobridge,2013-12-15 11:02:00,
2013-12-15 06:08:00,17.1,10.2,29.52,East,90,10.7,10.7,74,0.00,,,0.00,meteobridge,2013-12-15 11:08:00,
2013-12-15 06:13:00,17.2,10.4,29.52,North,0,11.4,11.4,74,0.00,,,0.00,meteobridge,2013-12-15 11:13:00,
2013-12-15 06:19:00,17.4,10.6,29.51,North,0,11.4,11.4,74,0.00,,,0.00,meteobridge,2013-12-15 11:19:00,
2013-12-15 06:25:00,17.8,10.6,29.51,North,0,6.9,15.9,73,0.00,,,0.00,meteobridge,2013-12-15 11:25:00,
2013-12-15 06:31:00,17.6,10.4,29.49,North,0,11.4,13.6,73,0.00,,,0.00,meteobridge,2013-12-15 11:31:00,
2013-12-15 06:37:00,17.8,10.6,29.50,North,0,13.6,15.9,73,0.00,,,0.00,meteobridge,2013-12-15 11:37:00,
2013-12-15 06:43:00,18.0,11.1,29.51,NE,45,7.6,9.8,74,0.00,,,0.00,meteobridge,2013-12-15 11:43:00,
2013-12-15 06:49:00,18.3,11.5,29.50,North,0,12.1,13.0,74,0.00,,,0.00,meteobridge,2013-12-15 11:49:00,
2013-12-15 06:55:00,18.5,11.7,29.50,North,0,6.9,8.3,74,0.00,,,0.00,meteobridge,2013-12-15 11:55:00,
2013-12-15 07:00:00,18.5,11.7,29.50,North,0,8.3,8.3,74,0.00,,,0.00,meteobridge,2013-12-15 12:00:00,
2013-12-15 07:06:00,18.3,11.5,29.49,North,0,3.1,8.3,74,0.00,,,0.00,meteobridge,2013-12-15 12:06:00,
2013-12-15 07:12:00,18.5,11.8,29.49,North,0,6.9,10.7,75,0.00,,,0.00,meteobridge,2013-12-15 12:12:00,
2013-12-15 07:18:00,18.7,12.0,29.49,NW,315,6.0,8.3,75,0.00,,,0.00,meteobridge,2013-12-15 12:18:00,
2013-12-15 07:24:00,18.7,12.0,29.48,North,0,5.4,6.9,75,0.00,,,0.00,meteobridge,2013-12-15 12:24:00,
2013-12-15 07:30:00,17.8,11.1,29.49,West,270,3.1,3.8,75,0.00,,,0.00,meteobridge,2013-12-15 12:30:00,
2013-12-15 07:36:00,17.1,10.6,29.49,NW,315,5.4,5.4,75,0.00,,,0.00,meteobridge,2013-12-15 12:36:00,
2013-12-15 07:42:00,17.4,11.1,29.49,North,0,4.5,6.0,76,0.00,,,0.00,meteobridge,2013-12-15 12:42:00,
2013-12-15 07:47:00,18.0,11.3,29.48,North,0,6.9,6.9,75,0.00,,,0.00,meteobridge,2013-12-15 12:47:00,
2013-12-15 07:53:00,17.8,11.1,29.48,North,0,6.9,9.8,75,0.00,,,0.00,meteobridge,2013-12-15 12:53:00,
2013-12-15 07:59:00,17.6,11.1,29.47,North,0,6.0,9.2,75,0.00,,,0.00,meteobridge,2013-12-15 12:59:00,
2013-12-15 08:05:00,18.3,12.0,29.47,North,0,3.8,6.0,76,0.00,,,0.00,meteobridge,2013-12-15 13:05:00,
2013-12-15 08:11:00,18.7,12.4,29.47,North,0,6.9,6.9,76,0.00,,,0.00,meteobridge,2013-12-15 13:11:00,
2013-12-15 08:17:00,18.7,12.4,29.47,NE,45,3.8,9.2,76,0.00,,,0.00,meteobridge,2013-12-15 13:17:00,
2013-12-15 08:23:00,18.9,12.6,29.47,North,0,7.6,9.2,76,0.00,,,0.00,meteobridge,2013-12-15 13:23:00,
2013-12-15 08:29:00,19.0,12.7,29.47,NW,315,3.8,5.4,76,0.00,,,0.00,meteobridge,2013-12-15 13:29:00,
2013-12-15 08:34:00,19.0,12.7,29.47,North,0,3.1,3.1,76,0.00,,,0.00,meteobridge,2013-12-15 13:34:00,
2013-12-15 08:40:00,18.5,12.2,29.47,North,0,7.6,7.6,76,0.00,,,0.00,meteobridge,2013-12-15 13:40:00,
2013-12-15 08:46:00,19.0,12.7,29.47,North,0,3.8,4.5,76,0.00,,,0.00,meteobridge,2013-12-15 13:46:00,
2013-12-15 08:52:00,18.7,12.4,29.46,NW,315,6.0,7.6,76,0.00,,,0.00,meteobridge,2013-12-15 13:52:00,
2013-12-15 08:58:00,19.0,12.7,29.46,North,0,5.4,6.0,76,0.00,,,0.00,meteobridge,2013-12-15 13:58:00,
2013-12-15 09:04:00,18.9,12.6,29.45,NE,45,8.3,8.3,76,0.00,,,0.00,meteobridge,2013-12-15 14:04:00,
2013-12-15 09:10:00,19.2,12.9,29.46,North,0,4.5,6.9,76,0.00,,,0.00,meteobridge,2013-12-15 14:10:00,
2013-12-15 09:16:00,19.0,12.7,29.46,North,0,6.0,6.9,76,0.00,,,0.00,meteobridge,2013-12-15 14:16:00,
2013-12-15 09:21:00,19.4,14.2,29.47,North,0,5.4,6.0,80,0.00,,,0.00,meteobridge,2013-12-15 14:21:00,
2013-12-15 09:27:00,19.8,14.9,29.47,North,0,1.6,1.6,81,0.00,,,0.00,meteobridge,2013-12-15 14:27:00,
2013-12-15 09:33:00,19.8,14.5,29.46,North,0,4.5,4.5,80,0.00,,,0.00,meteobridge,2013-12-15 14:33:00,
2013-12-15 09:39:00,19.8,14.5,29.46,NW,315,1.6,5.4,80,0.00,,,0.00,meteobridge,2013-12-15 14:39:00,
2013-12-15 09:45:00,19.9,14.7,29.46,North,0,3.8,3.8,80,0.00,,,0.00,meteobridge,2013-12-15 14:45:00,
2013-12-15 09:51:00,19.9,14.7,29.45,North,0,5.4,6.9,80,0.00,,,0.00,meteobridge,2013-12-15 14:51:00,
2013-12-15 09:57:00,20.1,14.9,29.45,North,0,3.1,9.2,80,0.00,,,0.00,meteobridge,2013-12-15 14:57:00,
2013-12-15 10:03:00,20.7,15.4,29.45,NW,315,5.4,5.4,80,0.00,,,0.00,meteobridge,2013-12-15 15:03:00,
2013-12-15 10:08:00,20.3,14.9,29.45,North,0,3.8,3.8,79,0.00,,,0.00,meteobridge,2013-12-15 15:08:00,
2013-12-15 10:14:00,21.2,15.8,29.45,North,0,3.8,3.8,79,0.00,,,0.00,meteobridge,2013-12-15 15:14:00,
2013-12-15 10:20:00,21.2,15.8,29.45,West,270,2.2,5.4,79,0.00,,,0.00,meteobridge,2013-12-15 15:20:00,
2013-12-15 10:26:00,21.9,16.3,29.45,North,0,2.2,4.5,79,0.00,,,0.00,meteobridge,2013-12-15 15:26:00,
2013-12-15 10:32:00,21.4,15.8,29.45,North,0,4.5,5.4,79,0.00,,,0.00,meteobridge,2013-12-15 15:32:00,
2013-12-15 10:38:00,21.9,16.3,29.44,NW,315,2.2,4.5,79,0.00,,,0.00,meteobridge,2013-12-15 15:38:00,
2013-12-15 10:44:00,21.9,16.3,29.44,North,0,3.1,4.5,79,0.00,,,0.00,meteobridge,2013-12-15 15:44:00,
2013-12-15 10:50:00,22.5,16.9,29.44,NW,315,5.4,5.4,79,0.00,,,0.00,meteobridge,2013-12-15 15:50:00,
2013-12-15 10:55:00,22.1,16.3,29.44,NW,315,6.9,9.8,78,0.00,,,0.00,meteobridge,2013-12-15 15:55:00,
2013-12-15 11:01:00,22.6,16.9,29.44,North,0,3.8,6.0,78,0.00,,,0.00,meteobridge,2013-12-15 16:01:00,
2013-12-15 11:07:00,25.7,19.6,29.44,North,0,1.6,1.6,77,0.00,,,0.00,meteobridge,2013-12-15 16:07:00,
2013-12-15 11:13:00,25.0,18.5,29.43,North,0,4.5,5.4,76,0.00,,,0.00,meteobridge,2013-12-15 16:13:00,
2013-12-15 11:19:00,25.2,18.3,29.43,North,0,5.4,6.9,75,0.00,,,0.00,meteobridge,2013-12-15 16:19:00,
2013-12-15 11:25:00,24.6,17.8,29.42,North,0,3.1,6.9,75,0.00,,,0.00,meteobridge,2013-12-15 16:25:00,
2013-12-15 11:31:00,26.8,19.9,29.42,North,0,0.0,1.6,75,0.00,,,0.00,meteobridge,2013-12-15 16:31:00,
2013-12-15 11:37:00,27.1,19.9,29.41,North,0,2.2,3.8,74,0.00,,,0.00,meteobridge,2013-12-15 16:37:00,
2013-12-15 11:42:00,26.8,19.2,29.42,North,0,5.4,5.4,73,0.00,,,0.00,meteobridge,2013-12-15 16:42:00,
2013-12-15 11:48:00,29.1,22.8,29.42,NE,45,0.7,3.1,77,0.00,,,0.00,meteobridge,2013-12-15 16:48:00,
2013-12-15 11:54:00,28.8,22.5,29.42,West,270,3.1,4.5,77,0.00,,,0.00,meteobridge,2013-12-15 16:54:00,
2013-12-15 12:00:00,27.1,19.4,29.42,North,0,2.2,3.1,72,0.00,,,0.00,meteobridge,2013-12-15 17:00:00,
2013-12-15 12:06:00,27.9,20.7,29.42,West,270,4.5,6.9,74,0.00,,,0.00,meteobridge,2013-12-15 17:06:00,
2013-12-15 12:12:00,27.1,19.9,29.43,North,0,2.2,3.8,74,0.00,,,0.00,meteobridge,2013-12-15 17:12:00,
2013-12-15 12:18:00,26.2,19.4,29.43,North,0,2.2,5.4,75,0.00,,,0.00,meteobridge,2013-12-15 17:18:00,
2013-12-15 12:24:00,26.4,19.9,29.43,NE,45,3.8,5.4,76,0.00,,,0.00,meteobridge,2013-12-15 17:24:00,
2013-12-15 12:29:00,26.2,19.8,29.43,West,270,3.1,3.8,76,0.00,,,0.00,meteobridge,2013-12-15 17:29:00,
2013-12-15 12:35:00,26.4,19.9,29.43,North,0,3.8,3.8,76,0.00,,,0.00,meteobridge,2013-12-15 17:35:00,
2013-12-15 12:41:00,26.2,19.8,29.42,West,270,2.2,6.9,76,0.00,,,0.00,meteobridge,2013-12-15 17:41:00,
2013-12-15 12:47:00,26.6,19.8,29.43,SW,225,7.6,7.6,75,0.00,,,0.00,meteobridge,2013-12-15 17:47:00,
2013-12-15 12:53:00,26.2,19.9,29.43,NW,315,9.2,11.4,77,0.00,,,0.00,meteobridge,2013-12-15 17:53:00,
2013-12-15 12:59:00,26.2,19.9,29.43,West,270,6.0,6.0,77,0.00,,,0.00,meteobridge,2013-12-15 17:59:00,
2013-12-15 13:05:00,26.1,19.8,29.43,NW,315,3.8,12.1,77,0.00,,,0.00,meteobridge,2013-12-15 18:05:00,
2013-12-15 13:10:00,25.9,19.8,29.44,West,270,9.8,10.7,77,0.00,,,0.00,meteobridge,2013-12-15 18:10:00,
2013-12-15 13:16:00,25.5,19.4,29.43,NW,315,9.8,9.8,77,0.00,,,0.00,meteobridge,2013-12-15 18:16:00,
2013-12-15 13:22:00,26.1,19.8,29.44,West,270,5.4,10.7,77,0.00,,,0.00,meteobridge,2013-12-15 18:22:00,
2013-12-15 13:28:00,25.7,19.2,29.44,West,270,13.6,13.6,76,0.00,,,0.00,meteobridge,2013-12-15 18:28:00,
2013-12-15 13:34:00,26.1,19.6,29.44,NW,315,3.1,8.3,76,0.00,,,0.00,meteobridge,2013-12-15 18:34:00,
2013-12-15 13:40:00,25.7,18.9,29.44,North,0,9.2,9.2,75,0.00,,,0.00,meteobridge,2013-12-15 18:40:00,
2013-12-15 13:46:00,26.6,19.4,29.44,West,270,8.3,8.3,74,0.00,,,0.00,meteobridge,2013-12-15 18:46:00,
2013-12-15 13:52:00,26.1,19.2,29.45,West,270,11.4,11.4,75,0.00,,,0.00,meteobridge,2013-12-15 18:52:00,
2013-12-15 13:57:00,26.2,19.0,29.45,North,0,4.5,4.5,74,0.00,,,0.00,meteobridge,2013-12-15 18:57:00,
2013-12-15 14:03:00,25.7,18.5,29.46,West,270,3.1,7.6,74,0.00,,,0.00,meteobridge,2013-12-15 19:03:00,
2013-12-15 14:09:00,26.6,19.0,29.46,West,270,5.4,5.4,73,0.00,,,0.00,meteobridge,2013-12-15 19:09:00,
2013-12-15 14:15:00,26.4,19.2,29.46,NW,315,4.5,6.0,74,0.00,,,0.00,meteobridge,2013-12-15 19:15:00,
2013-12-15 14:21:00,25.7,18.3,29.46,North,0,6.0,6.9,73,0.00,,,0.00,meteobridge,2013-12-15 19:21:00,
2013-12-15 14:27:00,25.0,17.6,29.47,West,270,3.8,9.8,73,0.00,,,0.00,meteobridge,2013-12-15 19:27:00,
2013-12-15 14:33:00,24.3,17.2,29.47,West,270,11.4,11.4,74,0.00,,,0.00,meteobridge,2013-12-15 19:33:00,
2013-12-15 14:39:00,23.9,16.9,29.47,North,0,9.2,9.8,74,0.00,,,0.00,meteobridge,2013-12-15 19:39:00,
2013-12-15 14:44:00,23.7,16.9,29.47,West,270,7.6,7.6,75,0.00,,,0.00,meteobridge,2013-12-15 19:44:00,
2013-12-15 14:48:00,23.5,16.7,29.47,South,180,10.7,15.9,75,0.00,,,0.00,meteobridge,2013-12-15 19:48:00,
2013-12-15 14:54:00,23.4,16.7,29.47,West,270,19.7,19.7,75,0.00,,,0.00,meteobridge,2013-12-15 19:54:00,
2013-12-15 15:00:00,23.2,16.5,29.47,NW,315,6.9,16.8,75,0.00,,,0.00,meteobridge,2013-12-15 20:00:00,
2013-12-15 15:06:00,23.2,16.2,29.48,West,270,9.8,11.4,74,0.00,,,0.00,meteobridge,2013-12-15 20:06:00,
2013-12-15 15:11:00,23.0,16.0,29.49,West,270,9.8,13.0,74,0.00,,,0.00,meteobridge,2013-12-15 20:11:00,
2013-12-15 15:17:00,23.2,16.2,29.49,SW,225,12.1,12.1,74,0.00,,,0.00,meteobridge,2013-12-15 20:17:00,
2013-12-15 15:23:00,23.4,16.3,29.50,NW,315,9.8,9.8,74,0.00,,,0.00,meteobridge,2013-12-15 20:23:00,
2013-12-15 15:29:00,23.4,16.3,29.51,West,270,8.3,8.3,74,0.00,,,0.00,meteobridge,2013-12-15 20:29:00,
2013-12-15 15:35:00,23.4,16.0,29.50,SW,225,6.9,9.2,73,0.00,,,0.00,meteobridge,2013-12-15 20:35:00,
2013-12-15 15:41:00,23.5,15.8,29.50,NW,315,4.5,9.2,72,0.00,,,0.00,meteobridge,2013-12-15 20:41:00,
2013-12-15 15:47:00,23.5,15.8,29.51,West,270,8.3,8.3,72,0.00,,,0.00,meteobridge,2013-12-15 20:47:00,
2013-12-15 15:53:00,23.4,15.6,29.51,West,270,9.8,9.8,72,0.00,,,0.00,meteobridge,2013-12-15 20:53:00,
2013-12-15 15:58:00,23.4,15.6,29.52,SW,225,8.3,8.3,72,0.00,,,0.00,meteobridge,2013-12-15 20:58:00,
2013-12-15 16:04:00,23.2,15.8,29.51,North,0,13.0,13.0,73,0.00,,,0.00,meteobridge,2013-12-15 21:04:00,
2013-12-15 16:10:00,22.8,15.4,29.52,West,270,12.1,12.1,73,0.00,,,0.00,meteobridge,2013-12-15 21:10:00,
2013-12-15 16:16:00,22.6,14.9,29.52,West,270,6.9,8.3,72,0.00,,,0.00,meteobridge,2013-12-15 21:16:00,
2013-12-15 16:22:00,22.5,14.7,29.52,West,270,7.6,9.2,72,0.00,,,0.00,meteobridge,2013-12-15 21:22:00,
2013-12-15 16:28:00,22.5,15.1,29.53,SE,135,3.8,6.9,73,0.00,,,0.00,meteobridge,2013-12-15 21:28:00,
2013-12-15 16:34:00,22.5,15.1,29.54,West,270,3.1,5.4,73,0.00,,,0.00,meteobridge,2013-12-15 21:34:00,
2013-12-15 16:40:00,22.5,15.1,29.53,North,0,3.1,6.9,73,0.00,,,0.00,meteobridge,2013-12-15 21:40:00,
2013-12-15 16:45:00,22.6,14.9,29.54,NW,315,3.1,6.9,72,0.00,,,0.00,meteobridge,2013-12-15 21:45:00,
2013-12-15 16:51:00,22.5,14.7,29.54,West,270,3.1,7.6,72,0.00,,,0.00,meteobridge,2013-12-15 21:51:00,
2013-12-15 16:57:00,22.5,14.7,29.54,West,270,9.8,9.8,72,0.00,,,0.00,meteobridge,2013-12-15 21:57:00,
2013-12-15 17:03:00,22.3,14.4,29.54,NW,315,4.5,14.5,71,0.00,,,0.00,meteobridge,2013-12-15 22:03:00,
2013-12-15 17:09:00,22.5,14.5,29.54,North,0,9.8,9.8,71,0.00,,,0.00,meteobridge,2013-12-15 22:09:00,
2013-12-15 17:15:00,22.3,14.4,29.54,West,270,4.5,9.2,71,0.00,,,0.00,meteobridge,2013-12-15 22:15:00,
2013-12-15 17:21:00,22.1,14.2,29.55,West,270,12.1,12.1,71,0.00,,,0.00,meteobridge,2013-12-15 22:21:00,
2013-12-15 17:27:00,22.1,13.8,29.56,SW,225,4.5,6.0,70,0.00,,,0.00,meteobridge,2013-12-15 22:27:00,
2013-12-15 17:32:00,21.9,14.0,29.56,West,270,3.8,3.8,71,0.00,,,0.00,meteobridge,2013-12-15 22:32:00,
2013-12-15 17:38:00,21.9,13.6,29.56,West,270,6.9,12.1,70,0.00,,,0.00,meteobridge,2013-12-15 22:38:00,
2013-12-15 17:44:00,21.9,13.3,29.56,West,270,12.1,12.1,69,0.00,,,0.00,meteobridge,2013-12-15 22:44:00,
2013-12-15 17:50:00,21.7,13.1,29.56,NW,315,4.5,9.8,69,0.00,,,0.00,meteobridge,2013-12-15 22:50:00,
2013-12-15 17:56:00,21.6,12.9,29.56,NW,315,7.6,13.6,69,0.00,,,0.00,meteobridge,2013-12-15 22:56:00,
2013-12-15 18:02:00,21.4,13.1,29.56,West,270,5.4,5.4,70,0.00,,,0.00,meteobridge,2013-12-15 23:02:00,
2013-12-15 18:08:00,21.4,12.7,29.57,West,270,10.7,15.9,69,0.00,,,0.00,meteobridge,2013-12-15 23:08:00,
2013-12-15 18:14:00,21.2,12.4,29.57,SW,225,6.0,6.0,68,0.00,,,0.00,meteobridge,2013-12-15 23:14:00,
2013-12-15 18:19:00,21.6,12.6,29.57,NW,315,5.4,10.7,68,0.00,,,0.00,meteobridge,2013-12-15 23:19:00,
2013-12-15 18:25:00,21.4,12.4,29.57,West,270,8.3,15.2,68,0.00,,,0.00,meteobridge,2013-12-15 23:25:00,
2013-12-15 18:31:00,21.0,12.7,29.57,South,180,4.5,4.5,70,0.00,,,0.00,meteobridge,2013-12-15 23:31:00,
2013-12-15 18:37:00,20.8,12.6,29.58,NW,315,12.1,12.1,70,0.00,,,0.00,meteobridge,2013-12-15 23:37:00,
2013-12-15 18:43:00,20.8,12.2,29.58,NW,315,6.9,9.8,69,0.00,,,0.00,meteobridge,2013-12-15 23:43:00,
2013-12-15 18:49:00,21.0,12.4,29.58,West,270,5.4,16.8,69,0.00,,,0.00,meteobridge,2013-12-15 23:49:00,
2013-12-15 18:55:00,21.0,12.4,29.58,North,0,9.2,14.5,69,0.00,,,0.00,meteobridge,2013-12-15 23:55:00,
2013-12-15 19:01:00,20.8,12.0,29.58,SW,225,7.6,10.7,68,0.00,,,0.00,meteobridge,2013-12-16 00:01:00,
2013-12-15 19:06:00,20.8,12.0,29.58,NW,315,6.9,9.8,68,0.00,,,0.00,meteobridge,2013-12-16 00:06:00,
2013-12-15 19:12:00,21.0,11.8,29.59,North,0,5.4,6.9,67,0.00,,,0.00,meteobridge,2013-12-16 00:12:00,
2013-12-15 19:18:00,21.0,11.8,29.59,NW,315,3.1,22.1,67,0.00,,,0.00,meteobridge,2013-12-16 00:18:00,
2013-12-15 19:24:00,20.8,11.7,29.59,NE,45,6.9,8.3,67,0.00,,,0.00,meteobridge,2013-12-16 00:24:00,
2013-12-15 19:30:00,21.0,11.8,29.59,West,270,4.5,7.6,67,0.00,,,0.00,meteobridge,2013-12-16 00:30:00,
2013-12-15 19:36:00,20.8,11.7,29.59,SW,225,15.2,15.2,67,0.00,,,0.00,meteobridge,2013-12-16 00:36:00,
2013-12-15 19:42:00,21.0,11.8,29.59,West,270,4.5,20.6,67,0.00,,,0.00,meteobridge,2013-12-16 00:42:00,
2013-12-15 19:48:00,20.7,11.8,29.60,West,270,5.4,8.3,68,0.00,,,0.00,meteobridge,2013-12-16 00:48:00,
2013-12-15 19:53:00,20.5,11.7,29.60,NW,315,2.2,4.5,68,0.00,,,0.00,meteobridge,2013-12-16 00:53:00,
2013-12-15 19:59:00,20.1,11.3,29.60,West,270,5.4,8.3,68,0.00,,,0.00,meteobridge,2013-12-16 00:59:00,
2013-12-15 20:05:00,20.5,11.7,29.60,West,270,6.0,6.0,68,0.00,,,0.00,meteobridge,2013-12-16 01:05:00,
2013-12-15 20:11:00,20.3,11.5,29.60,South,180,1.6,9.8,68,0.00,,,0.00,meteobridge,2013-12-16 01:11:00,
2013-12-15 20:17:00,20.5,11.7,29.60,West,270,6.0,6.0,68,0.00,,,0.00,meteobridge,2013-12-16 01:17:00,
2013-12-15 20:23:00,20.5,11.7,29.60,West,270,6.0,6.0,68,0.00,,,0.00,meteobridge,2013-12-16 01:23:00,
2013-12-15 20:29:00,19.9,10.8,29.61,West,270,3.8,5.4,67,0.00,,,0.00,meteobridge,2013-12-16 01:29:00,
2013-12-15 20:35:00,19.9,10.8,29.60,West,270,4.5,6.9,67,0.00,,,0.00,meteobridge,2013-12-16 01:35:00,
2013-12-15 20:40:00,19.9,10.8,29.61,West,270,9.2,9.8,67,0.00,,,0.00,meteobridge,2013-12-16 01:40:00,
2013-12-15 20:46:00,19.6,10.4,29.61,NW,315,3.1,3.1,67,0.00,,,0.00,meteobridge,2013-12-16 01:46:00,
2013-12-15 20:52:00,19.2,8.8,29.61,West,270,0.7,7.6,63,0.00,,,0.00,meteobridge,2013-12-16 01:52:00,
2013-12-15 20:58:00,19.6,10.8,29.61,North,0,3.1,6.0,68,0.00,,,0.00,meteobridge,2013-12-16 01:58:00,
2013-12-15 21:04:00,19.4,10.6,29.61,SE,135,1.6,1.6,68,0.00,,,0.00,meteobridge,2013-12-16 02:04:00,
2013-12-15 21:10:00,19.4,10.6,29.61,SW,225,3.8,6.9,68,0.00,,,0.00,meteobridge,2013-12-16 02:10:00,
2013-12-15 21:16:00,19.6,10.8,29.61,West,270,6.0,11.4,68,0.00,,,0.00,meteobridge,2013-12-16 02:16:00,
2013-12-15 21:22:00,19.0,9.0,29.61,West,270,2.2,3.8,64,0.00,,,0.00,meteobridge,2013-12-16 02:22:00,
2013-12-15 21:27:00,19.0,9.0,29.62,West,270,6.0,9.2,64,0.00,,,0.00,meteobridge,2013-12-16 02:27:00,
2013-12-15 21:33:00,19.4,10.6,29.61,West,270,3.1,6.9,68,0.00,,,0.00,meteobridge,2013-12-16 02:33:00,
2013-12-15 21:39:00,19.0,9.0,29.61,West,270,3.1,3.8,64,0.00,,,0.00,meteobridge,2013-12-16 02:39:00,
2013-12-15 21:45:00,19.4,10.6,29.61,West,270,6.9,6.9,68,0.00,,,0.00,meteobridge,2013-12-16 02:45:00,
2013-12-15 21:51:00,19.0,9.0,29.61,West,270,6.0,8.3,64,0.00,,,0.00,meteobridge,2013-12-16 02:51:00,
2013-12-15 21:57:00,19.2,8.8,29.61,South,180,5.4,10.7,63,0.00,,,0.00,meteobridge,2013-12-16 02:57:00,
2013-12-15 22:03:00,19.6,10.4,29.61,SW,225,7.6,7.6,67,0.00,,,0.00,meteobridge,2013-12-16 03:03:00,
2013-12-15 22:09:00,19.4,10.2,29.62,NW,315,2.2,2.2,67,0.00,,,0.00,meteobridge,2013-12-16 03:09:00,
2013-12-15 22:14:00,19.2,8.8,29.62,West,270,3.1,3.1,63,0.00,,,0.00,meteobridge,2013-12-16 03:14:00,
2013-12-15 22:20:00,19.9,11.1,29.62,South,180,8.3,8.3,68,0.00,,,0.00,meteobridge,2013-12-16 03:20:00,
2013-12-15 22:26:00,19.9,11.1,29.62,NW,315,2.2,3.1,68,0.00,,,0.00,meteobridge,2013-12-16 03:26:00,
2013-12-15 22:32:00,20.3,11.5,29.62,West,270,4.5,4.5,68,0.00,,,0.00,meteobridge,2013-12-16 03:32:00,
2013-12-15 22:38:00,20.5,11.7,29.62,South,180,3.8,6.0,68,0.00,,,0.00,meteobridge,2013-12-16 03:38:00,
2013-12-15 22:43:00,20.7,11.8,29.62,West,270,3.8,6.9,68,0.00,,,0.00,meteobridge,2013-12-16 03:43:00,
2013-12-15 22:48:00,20.8,12.0,29.61,SW,225,12.1,12.1,68,0.00,,,0.00,meteobridge,2013-12-16 03:48:00,
2013-12-15 22:54:00,21.0,11.8,29.62,SW,225,7.6,9.2,67,0.00,,,0.00,meteobridge,2013-12-16 03:54:00,
2013-12-15 23:00:00,20.7,11.5,29.62,South,180,1.6,12.1,67,0.00,,,0.00,meteobridge,2013-12-16 04:00:00,
2013-12-15 23:06:00,20.7,11.8,29.62,South,180,6.0,9.2,68,0.00,,,0.00,meteobridge,2013-12-16 04:06:00,
2013-12-15 23:12:00,20.5,11.7,29.62,West,270,4.5,4.5,68,0.00,,,0.00,meteobridge,2013-12-16 04:12:00,
2013-12-15 23:18:00,20.7,11.8,29.62,South,180,5.4,5.4,68,0.00,,,0.00,meteobridge,2013-12-16 04:18:00,
2013-12-15 23:24:00,20.3,11.8,29.62,West,270,6.0,6.0,69,0.00,,,0.00,meteobridge,2013-12-16 04:24:00,
2013-12-15 23:30:00,20.5,12.0,29.63,SW,225,6.0,6.9,69,0.00,,,0.00,meteobridge,2013-12-16 04:30:00,
2013-12-15 23:35:00,20.5,12.2,29.63,SW,225,3.8,6.0,70,0.00,,,0.00,meteobridge,2013-12-16 04:35:00,
2013-12-15 23:41:00,20.1,11.8,29.63,SW,225,5.4,5.4,70,0.00,,,0.00,meteobridge,2013-12-16 04:41:00,
2013-12-15 23:47:00,19.9,11.7,29.63,West,270,2.2,2.2,70,0.00,,,0.00,meteobridge,2013-12-16 04:47:00,
2013-12-15 23:53:00,19.6,11.5,29.62,West,270,0.0,0.7,70,0.00,,,0.00,meteobridge,2013-12-16 04:53:00,
2013-12-15 23:59:00,19.2,10.0,29.62,South,180,0.0,0.0,67,0.00,,,0.00,meteobridge,2013-12-16 04:59:00,